Canton, GA

4:15 PM EST on December 06, 2019 (GMT -0500)
Canton

Weather History for KCNI - October, 2019

Change the Weather History Date:

Sunday, October 20, 2019

  Actual Average (WUND) Record (WUND)
Temperature  
Mean Temperature 64 °F -  
Max Temperature 73 °F - - (-1)
Min Temperature 55 °F - - (-1)
Degree Days  
Heating Degree Days 1    
Growing Degree Days 14 (Base 50)    
Moisture  
Dew Point 58 °F    
Average Humidity 87    
Maximum Humidity 100    
Minimum Humidity 61    
Precipitation  
Precipitation 0.00 in - - ()
Sea Level Pressure  
Sea Level Pressure 29.90 in    
Wind  
Wind Speed 5 mph (WNW)    
Max Wind Speed 12 mph    
Max Gust Speed 17 mph    
Visibility 8 miles    
Events Fog , Rain    
Averages and records for this station are not official NWS values.
T = Trace of Precipitation, MM = Missing Value Source: NWS Daily Summary

Daily Weather History Graph

Daily Weather History Graph

Search for Another Location

Airport or City:

Astronomy

Oct. 20, 2019 Rise Set
Actual Time 7:46 AM EDT 6:57 PM EDT
Civil Twilight 7:21 AM EDT 7:22 PM EDT
Nautical Twilight 6:52 AM EDT 7:52 PM EDT
Astronomical Twilight 6:23 AM EDT 8:21 PM EDT
Moon No Moon Rise 2:03 PM EDT (10/20)
Length of Visible Light 12h 01m
Length of Day
11h 10m
Waning Gibbous, 59% of the Moon is Illuminated
Oct 20
Waning Gibbous
Oct 21
Last Quarter
Oct 27
New
Nov 4
First Quarter
Nov 12
Full

Hourly Weather History & Observations

Time (EDT) Temp. Dew Point Humidity Pressure Visibility Wind Dir Wind Speed Gust Speed Precip Events Conditions
12:10 AM 57.2 °F 57.2 °F 100% 29.78 in 10.0 mi NE 8.1 mph - N/A   Overcast
12:30 AM 59.0 °F 57.2 °F 94% 29.78 in 10.0 mi NNE 4.6 mph - N/A   Overcast
12:50 AM 59.0 °F 57.2 °F 94% 29.78 in 10.0 mi NE 4.6 mph - N/A   Overcast
1:10 AM 59.0 °F 57.2 °F 94% 29.78 in 5.0 mi Calm Calm - N/A   Overcast
1:30 AM 59.0 °F 59.0 °F 100% 29.78 in 4.0 mi Calm Calm - N/A Rain Light Rain
1:50 AM 59.0 °F 59.0 °F 100% 29.78 in 1.8 mi Calm Calm - N/A   Drizzle
2:10 AM 59.0 °F 59.0 °F 100% 29.78 in 3.0 mi Calm Calm - N/A   Light Drizzle
2:30 AM 59.0 °F 59.0 °F 100% 29.78 in 2.5 mi Calm Calm - N/A   Overcast
2:50 AM 59.0 °F 59.0 °F 100% 29.79 in 5.0 mi West 3.5 mph - N/A   Overcast
3:10 AM 59.0 °F 59.0 °F 100% 29.78 in 10.0 mi West 3.5 mph - N/A   Overcast
3:30 AM 59.0 °F 59.0 °F 100% 29.79 in 10.0 mi West 3.5 mph - N/A   Overcast
3:50 AM 57.2 °F 57.2 °F 100% 29.78 in 7.0 mi WNW 4.6 mph - N/A   Overcast
4:10 AM 55.4 °F 55.4 °F 100% 29.78 in 3.0 mi WNW 6.9 mph - N/A   Overcast
4:30 AM 55.4 °F 55.4 °F 100% 29.79 in 5.0 mi West 3.5 mph - N/A   Overcast
4:50 AM 55.4 °F 55.4 °F 100% 29.79 in 5.0 mi WNW 6.9 mph - N/A   Overcast
5:10 AM 55.4 °F 55.4 °F 100% 29.80 in 4.0 mi WNW 5.8 mph - N/A   Overcast
5:30 AM 55.4 °F 55.4 °F 100% 29.81 in 3.0 mi WNW 9.2 mph - N/A   Overcast
5:50 AM 55.4 °F 55.4 °F 100% 29.82 in 1.0 mi WNW 8.1 mph - N/A   Overcast
6:10 AM 55.4 °F 55.4 °F 100% 29.83 in 0.5 mi WNW 8.1 mph - N/A Fog Fog
6:30 AM 55.4 °F 55.4 °F 100% 29.83 in 0.5 mi WNW 9.2 mph - N/A Fog Fog
6:50 AM 55.4 °F 55.4 °F 100% 29.83 in 0.5 mi WNW 8.1 mph - N/A Fog Fog
7:10 AM 55.4 °F 55.4 °F 100% 29.84 in 1.0 mi WNW 8.1 mph - N/A   Overcast
7:50 AM 55.4 °F 55.4 °F 100% 29.86 in 5.0 mi West 9.2 mph - N/A   Overcast
8:10 AM 55.4 °F 55.4 °F 100% 29.87 in 2.5 mi West 8.1 mph - N/A   Overcast
8:30 AM 57.2 °F 57.2 °F 100% 29.88 in 2.0 mi West 5.8 mph - N/A   Overcast
8:50 AM 57.2 °F 57.2 °F 100% 29.89 in 4.0 mi West 5.8 mph - N/A   Overcast
9:10 AM 57.2 °F 57.2 °F 100% 29.90 in 7.0 mi WNW 8.1 mph - N/A   Overcast
9:30 AM 59.0 °F 59.0 °F 100% 29.91 in 10.0 mi WNW 8.1 mph - N/A   Overcast
9:50 AM 59.0 °F 59.0 °F 100% 29.91 in 10.0 mi WNW 8.1 mph - N/A   Overcast
10:10 AM 60.8 °F 60.8 °F 100% 29.92 in 10.0 mi WNW 11.5 mph 17.3 mph N/A   Scattered Clouds
10:30 AM 62.6 °F 60.8 °F 94% 29.92 in 10.0 mi WNW 5.8 mph - N/A   Scattered Clouds
10:50 AM 64.4 °F 60.8 °F 88% 29.93 in 10.0 mi NW 9.2 mph 17.3 mph N/A   Scattered Clouds
11:10 AM 64.4 °F 60.8 °F 88% 29.94 in 10.0 mi NW 8.1 mph - N/A   Scattered Clouds
11:30 AM 66.2 °F 59.0 °F 78% 29.94 in 10.0 mi WNW 8.1 mph - N/A   Scattered Clouds
11:50 AM 68.0 °F 59.0 °F 73% 29.94 in 10.0 mi NW 8.1 mph - N/A   Mostly Cloudy
12:10 PM 68.0 °F 59.0 °F 73% 29.94 in 10.0 mi NW 4.6 mph - N/A   Scattered Clouds
12:30 PM 69.8 °F 59.0 °F 68% 29.94 in 10.0 mi NW 10.4 mph - N/A   Mostly Cloudy
1:10 PM 69.8 °F 59.0 °F 68% 29.94 in 10.0 mi NW 8.1 mph - N/A   Overcast
1:30 PM 69.8 °F 59.0 °F 68% 29.94 in 10.0 mi WNW 10.4 mph - N/A   Overcast
1:50 PM 69.8 °F 59.0 °F 68% 29.94 in 10.0 mi WNW 8.1 mph - N/A   Overcast
2:10 PM 71.6 °F 59.0 °F 64% 29.93 in 10.0 mi WNW 11.5 mph - N/A   Mostly Cloudy
2:30 PM 71.6 °F 59.0 °F 64% 29.93 in 10.0 mi WNW 10.4 mph 16.1 mph N/A   Scattered Clouds
2:50 PM 71.6 °F 59.0 °F 64% 29.92 in 10.0 mi WNW 3.5 mph - N/A   Clear
3:10 PM 73.4 °F 59.0 °F 61% 29.92 in 10.0 mi NW 5.8 mph - N/A   Mostly Cloudy
3:30 PM 71.6 °F 59.0 °F 64% 29.92 in 10.0 mi WNW 8.1 mph - N/A   Mostly Cloudy
3:50 PM 73.4 °F 59.0 °F 61% 29.92 in 10.0 mi West 6.9 mph - N/A   Scattered Clouds
4:10 PM 73.4 °F 59.0 °F 61% 29.93 in 10.0 mi West 6.9 mph - N/A   Scattered Clouds
4:30 PM 73.4 °F 59.0 °F 61% 29.94 in 10.0 mi WSW 5.8 mph - N/A   Scattered Clouds
4:50 PM 73.4 °F 59.0 °F 61% 29.94 in 10.0 mi West 8.1 mph - N/A   Clear
5:10 PM 71.6 °F 59.0 °F 64% 29.95 in 10.0 mi WSW 8.1 mph - N/A   Clear
5:30 PM 71.6 °F 59.0 °F 64% 29.95 in 10.0 mi West 6.9 mph - N/A   Clear
5:50 PM 71.6 °F 59.0 °F 64% 29.95 in 10.0 mi West 6.9 mph - N/A   Clear
6:10 PM 69.8 °F 59.0 °F 68% 29.96 in 10.0 mi WNW 4.6 mph - N/A   Clear
6:30 PM 68.0 °F 59.0 °F 73% 29.95 in 10.0 mi WNW 4.6 mph - N/A   Clear
7:10 PM 66.2 °F 59.0 °F 78% 29.96 in 10.0 mi Calm Calm - N/A   Clear
7:30 PM 64.4 °F 59.0 °F 83% 29.97 in 10.0 mi Calm Calm - N/A   Clear
7:50 PM 64.4 °F 59.0 °F 83% 29.97 in 10.0 mi WNW 4.6 mph - N/A   Clear
8:10 PM 62.6 °F 59.0 °F 88% 29.98 in 10.0 mi Calm Calm - N/A   Clear
8:30 PM 62.6 °F 59.0 °F 88% 29.98 in 10.0 mi Calm Calm - N/A   Clear
8:50 PM 62.6 °F 59.0 °F 88% 29.98 in 10.0 mi Calm Calm - N/A   Clear
9:10 PM 60.8 °F 59.0 °F 94% 29.98 in 10.0 mi Calm Calm - N/A   Clear
9:30 PM 60.8 °F 60.8 °F 100% 29.99 in 10.0 mi Calm Calm - N/A   Clear
9:50 PM 60.8 °F 59.0 °F 94% 29.99 in 10.0 mi Calm Calm - N/A   Clear
10:10 PM 60.8 °F 60.8 °F 100% 29.99 in 10.0 mi Calm Calm - N/A   Clear
10:30 PM 59.0 °F 59.0 °F 100% 29.99 in 10.0 mi Calm Calm - N/A   Clear
10:50 PM 59.0 °F 59.0 °F 100% 30.00 in 10.0 mi Calm Calm - N/A   Clear
11:10 PM 59.0 °F 59.0 °F 100% 30.00 in 10.0 mi Calm Calm - N/A   Clear
11:30 PM 60.8 °F 60.8 °F 100% 30.00 in 10.0 mi Calm Calm - N/A   Clear
11:50 PM 60.8 °F 59.0 °F 94% 30.00 in 10.0 mi Calm Calm - N/A   Clear